H1 CPF 2 NER 2025 10 6 9 279 01 glonass139 H2 1808601 9139 43687 2025 10 6 0 0 0 2025 10 9 23 45 0 900 1 1 0 0 0 1 H9 10 0 60954 0.00000 0 13928127.117 -8053888.607 19809688.520 10 0 60954 900.00000 0 16255226.163 -7949817.531 17993053.853 10 0 60954 1800.00000 0 18339035.050 -8015427.574 15827362.674 10 0 60954 2700.00000 0 20128020.819 -8214312.785 13354534.603 10 0 60954 3600.00000 0 21580402.265 -8501913.752 10622472.653 10 0 60954 4500.00000 0 22665726.550 -8827576.493 7684143.099 10 0 60954 5400.00000 0 23365988.296 -9136882.044 4596554.189 10 0 60954 6300.00000 0 23676243.916 -9374148.446 1419652.922 10 0 60954 7200.00000 0 23604694.884 -9484999.129 -1784838.861 10 0 60954 8100.00000 0 23172236.101 -9418888.491 -4954626.323 10 0 60954 9000.00000 0 22411487.759 -9131476.716 -8028057.618 10 0 60954 9900.00000 0 21365351.373 -8586752.086 -10945329.612 10 0 60954 10800.00000 0 20085150.898 -7758809.558 -13649659.031 10 0 60954 11700.00000 0 18628437.253 -6633208.629 -16088395.415 10 0 60954 12600.00000 0 17056549.147 -5207851.426 -18214053.364 10 0 60954 13500.00000 0 15432033.383 -3493342.268 -19985243.318 10 0 60954 14400.00000 0 13816033.692 -1512811.958 -21367482.312 10 0 60954 15300.00000 0 12265758.329 698787.253 -22333868.624 10 0 60954 16200.00000 0 10832133.151 3095887.663 -22865607.095 10 0 60954 17100.00000 0 9557738.830 5623963.584 -22952374.997 10 0 60954 18000.00000 0 8475118.613 8221571.705 -22592521.448 10 0 60954 18900.00000 0 7605527.235 10822689.668 -21793096.739 10 0 60954 19800.00000 0 6958172.763 13359255.707 -20569711.206 10 0 60954 20700.00000 0 6529982.263 15763803.617 -18946226.632 10 0 60954 21600.00000 0 6305899.960 17972083.389 -16954286.384 10 0 60954 22500.00000 0 6259704.070 19925558.446 -14632693.658 10 0 60954 23400.00000 0 6355306.503 21573675.474 -12026650.209 10 0 60954 24300.00000 0 6548479.310 22875812.532 -9186870.693 10 0 60954 25200.00000 0 6788933.659 23802824.585 -6168590.239 10 0 60954 26100.00000 0 7022662.367 24338122.618 -3030485.091 10 0 60954 27000.00000 0 7194445.933 24478242.161 166472.209 10 0 60954 27900.00000 0 7250415.274 24232878.587 3360200.304 10 0 60954 28800.00000 0 7140562.189 23624388.994 6488715.600 10 0 60954 29700.00000 0 6821091.018 22686782.869 9491334.209 10 0 60954 30600.00000 0 6256511.905 21464245.048 12309845.816 10 0 60954 31500.00000 0 5421387.210 20009253.932 14889636.793 10 0 60954 32400.00000 0 4301657.369 18380374.502 17180741.225 10 0 60954 33300.00000 0 2895490.251 16639818.866 19138800.185 10 0 60954 34200.00000 0 1213618.042 14850876.352 20725911.545 10 0 60954 35100.00000 0 -720853.028 13075320.111 21911354.909 10 0 60954 36000.00000 0 -2873153.012 11370897.690 22672178.728 10 0 60954 36900.00000 0 -5198050.092 9789009.312 22993639.136 10 0 60954 37800.00000 0 -7641495.296 8372669.475 22869482.802 10 0 60954 38700.00000 0 -10142643.283 7154835.696 22302068.718 10 0 60954 39600.00000 0 -12636166.874 6157173.034 21302326.611 10 0 60954 40500.00000 0 -15054770.894 5389305.052 19889552.450 10 0 60954 41400.00000 0 -17331802.454 4848581.896 18091044.249 10 0 60954 42300.00000 0 -19403850.446 4520374.838 15941584.243 10 0 60954 43200.00000 0 -21213227.081 4378884.883 13482776.265 10 0 60954 44100.00000 0 -22710228.674 4388431.550 10762249.916 10 0 60954 45000.00000 0 -23855081.452 4505167.866 7832745.865 10 0 60954 45900.00000 0 -24619490.978 4679149.451 4751099.089 10 0 60954 46800.00000 0 -24987729.809 4856670.468 1577139.175 10 0 60954 47700.00000 0 -24957217.092 4982767.493 -1627471.150 10 0 60954 48600.00000 0 -24538565.045 5003784.916 -4800436.597 10 0 60954 49500.00000 0 -23755089.606 4869892.422 -7880045.203 10 0 60954 50400.00000 0 -22641805.436 4537446.871 -10806375.135 10 0 60954 51300.00000 0 -21243947.157 3971097.199 -13522468.110 10 0 60954 52200.00000 0 -19615078.974 3145541.717 -15975445.723 10 0 60954 53100.00000 0 -17814872.330 2046861.887 -18117546.095 10 0 60954 54000.00000 0 -15906645.253 673374.543 -19907060.043 10 0 60954 54900.00000 0 -13954767.155 -964034.987 -21309148.058 10 0 60954 55800.00000 0 -12022038.409 -2842114.333 -22296521.921 10 0 60954 56700.00000 0 -10167154.860 -4925972.978 -22849977.588 10 0 60954 57600.00000 0 -8442363.618 -7170309.130 -22958769.078 10 0 60954 58500.00000 0 -6891408.226 -9521084.038 -22620816.203 10 0 60954 59400.00000 0 -5547848.822 -11917574.359 -21842742.325 10 0 60954 60300.00000 0 -4433826.929 -14294717.270 -20639741.630 10 0 60954 61200.00000 0 -3559325.653 -16585650.599 -19035278.714 10 0 60954 62100.00000 0 -2921955.043 -18724342.084 -17060626.541 10 0 60954 63000.00000 0 -2507270.144 -20648198.029 -14754251.969 10 0 60954 63900.00000 0 -2289606.832 -22300542.456 -12161061.081 10 0 60954 64800.00000 0 -2233398.555 -23632863.289 -9331519.313 10 0 60954 65700.00000 0 -2294916.912 -24606731.905 -6320663.887 10 0 60954 66600.00000 0 -2424361.082 -25195316.129 -3187028.239 10 0 60954 67500.00000 0 -2568206.537 -25384423.977 8500.099 10 0 60954 68400.00000 0 -2671712.622 -25173035.211 3203865.459 10 0 60954 69300.00000 0 -2681482.115 -24573299.407 6337050.290 10 0 60954 70200.00000 0 -2547963.947 -23610001.651 9347277.941 10 0 60954 71100.00000 0 -2227792.921 -22319519.298 12176188.506 10 0 60954 72000.00000 0 -1685867.462 -20748314.390 14768965.013 10 0 60954 72900.00000 0 -897077.666 -18951025.551 17075388.520 10 0 60954 73800.00000 0 152389.199 -16988239.502 19050802.386 10 0 60954 74700.00000 0 1464220.774 -14924035.328 20656967.869 10 0 60954 75600.00000 0 3027664.403 -12823403.619 21862795.573 10 0 60954 76500.00000 0 4819738.427 -10749647.305 22644939.629 10 0 60954 77400.00000 0 6805962.110 -8761871.484 22988244.056 10 0 60954 78300.00000 0 8941574.917 -6912665.488 22886033.448 10 0 60954 79200.00000 0 11173195.857 -5246072.340 22340242.769 10 0 60954 80100.00000 0 13440855.382 -3795928.896 21361383.829 10 0 60954 81000.00000 0 15680317.016 -2584644.643 19968348.726 10 0 60954 81900.00000 0 17825593.707 -1622469.137 18188053.367 10 0 60954 82800.00000 0 19811555.534 -907278.045 16054926.962 10 0 60954 83700.00000 0 21576521.225 -424886.298 13610256.226 10 0 60954 84600.00000 0 23064726.045 -149875.075 10901395.711 10 0 60954 85500.00000 0 24228563.266 -46897.825 7980858.504 10 0 60955 0.00000 0 25030505.289 -72410.404 4905304.276 10 0 60955 900.00000 0 25444623.698 -176752.372 1734442.010 10 0 60955 1800.00000 0 25457642.815 -306491.338 -1470127.331 10 0 60955 2700.00000 0 25069482.874 -406930.832 -4646111.099 10 0 60955 3600.00000 0 24293267.925 -424674.884 -7731740.381 10 0 60955 4500.00000 0 23154797.817 -310139.742 -10666977.783 10 0 60955 5400.00000 0 21691505.685 -19905.178 -13394693.003 10 0 60955 6300.00000 0 19950944.318 481195.530 -15861782.447 10 0 60955 7200.00000 0 17988864.774 1218336.905 -18020210.247 10 0 60955 8100.00000 0 15866967.969 2205388.875 -19827949.782 10 0 60955 9000.00000 0 13650423.692 3444087.627 -21249806.881 10 0 60955 9900.00000 0 11405261.311 4923726.058 -22258108.388 10 0 60955 10800.00000 0 9195741.625 6621378.171 -22833242.605 10 0 60955 11700.00000 0 7081819.902 8502649.083 -22964041.164 10 0 60955 12600.00000 0 5116806.123 10522920.082 -22647995.036 10 0 60955 13500.00000 0 3345319.872 12629037.219 -21891300.687 10 0 60955 14400.00000 0 1801624.708 14761373.243 -20708735.728 10 0 60955 15300.00000 0 508410.749 16856176.842 -19123366.666 10 0 60955 16200.00000 0 -523924.819 18848111.053 -17166094.673 10 0 60955 17100.00000 0 -1297470.675 20672874.679 -14875048.424 10 0 60955 18000.00000 0 -1826461.295 22269796.955 -12294836.053 10 0 60955 18900.00000 0 -2136419.969 23584296.833 -9475671.109 10 0 60955 19800.00000 0 -2262822.812 24570103.928 -6472389.904 10 0 60955 20700.00000 0 -2249341.787 25191148.176 -3343379.814 10 0 60955 21600.00000 0 -2145742.529 25423039.341 -149439.939 10 0 60955 22500.00000 0 -2005527.116 25254074.768 3047403.241 10 0 60955 23400.00000 0 -1883422.573 24685733.789 6185101.690 10 0 60955 24300.00000 0 -1832822.062 23732638.761 9202789.338 10 0 60955 25200.00000 0 -1903287.471 22421985.178 12041959.847 10 0 60955 26100.00000 0 -2138219.153 20792465.427 14647595.793 10 0 60955 27000.00000 0 -2572791.231 18892731.806 16969227.801 10 0 60955 27900.00000 0 -3232239.476 16779463.338 18961903.780 10 0 60955 28800.00000 0 -4130573.813 14515117.115 20587050.309 10 0 60955 29700.00000 0 -5269769.641 12165457.551 21813210.565 10 0 60955 30600.00000 0 -6639472.241 9796965.734 22616645.558 10 0 60955 31500.00000 0 -8217227.242 7474235.655 22981787.991 10 0 60955 32400.00000 0 -9969228.463 5257464.312 22901540.741 10 0 60955 33300.00000 0 -11851553.128 3200138.591 22377414.636 10 0 60955 34200.00000 0 -13811834.372 1347013.702 21419502.936 10 0 60955 35100.00000 0 -15791302.900 -267534.104 20046292.705 10 0 60955 36000.00000 0 -17727114.294 -1620713.111 18284316.031 10 0 60955 36900.00000 0 -19554866.322 -2702030.648 16167646.877 10 0 60955 37800.00000 0 -21211202.418 -3513487.336 13737252.134 10 0 60955 38700.00000 0 -22636393.392 -4069243.376 11040208.203 10 0 60955 39600.00000 0 -23776789.795 -4394771.067 8128797.194 10 0 60955 40500.00000 0 -24587042.082 -4525529.279 5059499.310 10 0 60955 41400.00000 0 -25031995.233 -4505215.825 1891900.345 10 0 60955 42300.00000 0 -25088177.245 -4383671.590 -1312464.710 10 0 60955 43200.00000 0 -24744817.851 -4214525.311 -4491309.449 10 0 60955 44100.00000 0 -24004353.617 -4052679.251 -7582811.454 10 0 60955 45000.00000 0 -22882396.891 -3951742.949 -10526821.013 10 0 60955 45900.00000 0 -21407168.964 -3961524.772 -13266038.788 10 0 60955 46800.00000 0 -19618420.419 -4125688.653 -15747138.665 10 0 60955 47700.00000 0 -17565883.427 -4479676.507 -17921813.059 10 0 60955 48600.00000 0 -15307320.632 -5048985.601 -19747719.715 10 0 60955 49500.00000 0 -12906252.260 -5847874.974 -21189311.057 10 0 60955 50400.00000 0 -10429456.719 -6878556.803 -22218529.656 10 0 60955 51300.00000 0 -7944349.242 -8130907.955 -22815356.207 10 0 60955 52200.00000 0 -5516348.166 -9582714.874 -22968199.400 10 0 60955 53100.00000 0 -3206338.758 -11200442.340 -22674120.259 10 0 60955 54000.00000 0 -1068340.134 -12940494.472 -21938886.761 10 0 60955 54900.00000 0 852527.888 -14750915.498 -20776857.944 10 0 60955 55800.00000 0 2521693.908 -16573459.243 -19210699.903 10 0 60955 56700.00000 0 3916332.285 -18345940.659 -17270939.458 10 0 60955 57600.00000 0 5026060.008 -20004770.821 -14995364.354 10 0 60955 58500.00000 0 5853105.519 -21487568.934 -12428281.919 10 0 60955 59400.00000 0 6411944.256 -22735741.663 -9619650.920 10 0 60955 60300.00000 0 6728418.101 -23696921.448 -6624103.852 10 0 60955 61200.00000 0 6838377.696 -24327161.340 -3499879.189 10 0 60955 62100.00000 0 6785906.670 -24592794.304 -307684.854 10 0 60955 63000.00000 0 6621204.290 -24471879.088 2890484.473 10 0 60955 63900.00000 0 6398217.358 -23955172.269 6032552.707 10 0 60955 64800.00000 0 6172122.421 -23046586.166 9057566.621 10 0 60955 65700.00000 0 5996765.409 -21763113.871 11906875.478 10 0 60955 66600.00000 0 5922167.229 -20134225.085 14525263.212 10 0 60955 67500.00000 0 5992200.728 -18200758.401 16862011.575 10 0 60955 68400.00000 0 6242536.878 -16013356.547 18871874.311 10 0 60955 69300.00000 0 6698946.516 -13630509.824 20515944.319 10 0 60955 70200.00000 0 7376028.897 -11116288.915 21762398.052 10 0 60955 71100.00000 0 8276420.452 -8537860.663 22587103.808 10 0 60955 72000.00000 0 9390517.174 -5962889.125 22974083.102 10 0 60955 72900.00000 0 10696722.784 -3456928.534 22915816.958 10 0 60955 73800.00000 0 12162213.183 -1080914.990 22413391.691 10 0 60955 74700.00000 0 13744186.378 1111140.490 21476481.426 10 0 60955 75600.00000 0 15391547.052 3074163.162 20123167.414 10 0 60955 76500.00000 0 17046956.865 4773647.700 18379596.966 10 0 60955 77400.00000 0 18649166.249 6186846.367 16279487.644 10 0 60955 78300.00000 0 20135531.444 7303463.478 13863485.167 10 0 60955 79200.00000 0 21444612.408 8125827.713 11178386.217 10 0 60955 80100.00000 0 22518743.244 8668535.398 8276240.106 10 0 60955 81000.00000 0 23306467.492 8957579.921 5213345.789 10 0 60955 81900.00000 0 23764735.670 9029004.047 2049163.024 10 0 60955 82800.00000 0 23860771.832 8927132.045 -1154841.426 10 0 60955 83700.00000 0 23573529.679 8702456.531 -4336390.036 10 0 60955 84600.00000 0 22894675.443 8409269.774 -7433609.594 10 0 60955 85500.00000 0 21829054.875 8103140.335 -10386240.757 10 0 60956 0.00000 0 20394623.674 7838342.718 -13136817.493 10 0 60956 900.00000 0 18621842.046 7665349.704 -15631794.071 10 0 60956 1800.00000 0 16552559.989 7628494.967 -17822593.163 10 0 60956 2700.00000 0 14238436.776 7763905.531 -19666558.900 10 0 60956 3600.00000 0 11738962.230 8097793.008 -21127792.134 10 0 60956 4500.00000 0 9119161.676 8645176.694 -22177852.813 10 0 60956 5400.00000 0 6447080.473 9409093.400 -22796315.485 10 0 60956 6300.00000 0 3791153.067 10380328.130 -22971167.139 10 0 60956 7200.00000 0 1217566.237 11537677.612 -22699039.812 10 0 60956 8100.00000 0 -1212273.774 12848736.075 -21985273.618 10 0 60956 9000.00000 0 -3444065.101 14271170.579 -20843809.236 10 0 60956 9900.00000 0 -5432628.799 15754432.451 -19296912.111 10 0 60956 10800.00000 0 -7143538.829 17241832.949 -17374733.990 10 0 60956 11700.00000 0 -8554296.654 18672895.837 -15114720.485 10 0 60956 12600.00000 0 -9655002.759 19985887.831 -12560876.462 10 0 60956 13500.00000 0 -10448498.702 21120420.276 -9762903.817 10 0 60956 14400.00000 0 -10949975.595 22020012.465 -6775228.795 10 0 60956 15300.00000 0 -11186067.365 22634508.498 -3655938.221 10 0 60956 16200.00000 0 -11193468.872 22922245.943 -465645.860 10 0 60956 17100.00000 0 -11017138.881 22851885.006 2733688.554 10 0 60956 18000.00000 0 -10708165.263 22403821.384 5879964.137 10 0 60956 18900.00000 0 -10321383.775 21571123.637 8912143.785 10 0 60956 19800.00000 0 -9912851.897 20359955.938 11771435.619 10 0 60956 20700.00000 0 -9537284.904 18789468.773 14402428.098 10 0 60956 21600.00000 0 -9245562.577 16891162.359 16754157.120 10 0 60956 22500.00000 0 -9082411.576 14707749.441 18781085.088 10 0 60956 23400.00000 0 -9084360.806 12291564.781 20443973.797 10 0 60956 24300.00000 0 -9278055.423 9702587.191 21710635.260 10 0 60956 25200.00000 0 -9678999.987 7006155.626 22556547.007 10 0 60956 26100.00000 0 -10290783.343 4270473.252 22965320.903 10 0 60956 27000.00000 0 -11104817.811 1564001.791 22929017.222 10 0 60956 27900.00000 0 -12100604.030 -1047147.240 22448298.368 10 0 60956 28800.00000 0 -13246511.078 -3501717.677 21532419.390 10 0 60956 29700.00000 0 -14501040.262 -5745607.849 20199055.214 10 0 60956 30600.00000 0 -15814520.916 -7733869.610 18473967.274 10 0 60956 31500.00000 0 -17131168.460 -9432325.317 16390515.067 10 0 60956 32400.00000 0 -18391419.788 -10818736.340 13989020.935 10 0 60956 33300.00000 0 -19534449.050 -11883475.019 11315999.164 10 0 60956 34200.00000 0 -20500758.907 -12629672.329 8423263.211 10 0 60956 35100.00000 0 -21234738.686 -13072835.351 5366927.426 10 0 60956 36000.00000 0 -21687081.699 -13239950.727 2206321.971 10 0 60956 36900.00000 0 -21816959.245 -13168111.898 -997158.261 10 0 60956 37800.00000 0 -21593858.761 -12902728.188 -4181248.312 10 0 60956 38700.00000 0 -20999007.235 -12495391.638 -7284027.822 10 0 60956 39600.00000 0 -20026318.547 -12001492.291 -10245131.341 10 0 60956 40500.00000 0 -18682823.216 -11477683.441 -13006929.986 10 0 60956 41400.00000 0 -16988561.073 -10979304.901 -15515660.556 10 0 60956 42300.00000 0 -14975940.050 -10557874.248 -17722479.290 10 0 60956 43200.00000 0 -12688586.867 -10258753.081 -19584419.106 10 0 60956 44100.00000 0 -10179737.027 -10119087.925 -21065231.184 10 0 60956 45000.00000 0 -7510230.890 -10166113.594 -22136094.189 10 0 60956 45900.00000 0 -4746199.235 -10415891.380 -22776177.253 10 0 60956 46800.00000 0 -1956534.597 -10872535.849 -22973045.795 10 0 60956 47700.00000 0 789746.351 -11527963.271 -22722902.421 10 0 60956 48600.00000 0 3426139.691 -12362172.522 -22030658.433 10 0 60956 49500.00000 0 5891180.984 -13344046.732 -20909834.758 10 0 60956 50400.00000 0 8130756.989 -14432641.929 -19382294.426 10 0 60956 51300.00000 0 10100106.816 -15578908.245 -17477812.022 10 0 60956 52200.00000 0 11765429.980 -16727771.028 -15233488.660 10 0 60956 53100.00000 0 13105035.425 -17820483.851 -12693024.118 10 0 60956 54000.00000 0 14109984.955 -18797154.001 -9905860.584 10 0 60956 54900.00000 0 14784205.794 -19599333.634 -6926215.018 10 0 60956 55800.00000 0 15144069.374 -20172567.065 -3812019.436 10 0 60956 56700.00000 0 15217455.919 -20468786.545 -623790.212 10 0 60956 57600.00000 0 15042346.033 -20448455.380 2576551.085 10 0 60956 58500.00000 0 14665000.275 -20082367.988 5726881.903 10 0 60956 59400.00000 0 14137804.922 -19353031.161 8766084.196 10 0 60956 60300.00000 0 13516875.854 -18255568.453 11635227.628 10 0 60956 61200.00000 0 12859522.360 -16798109.829 14278707.544 10 0 60956 62100.00000 0 12221678.137 -15001650.250 16645315.991 10 0 60956 63000.00000 0 11655407.690 -12899383.000 18689225.652 10 0 60956 63900.00000 0 11206592.804 -10535535.355 20370868.439 10 0 60956 64800.00000 0 10912895.864 -7963754.590 21657692.757 10 0 60956 65700.00000 0 10802085.001 -5245110.708 22524785.812 10 0 60956 66600.00000 0 10890790.830 -2445797.841 22955349.916 10 0 60956 67500.00000 0 11183746.553 365371.586 22941024.349 10 0 60956 68400.00000 0 11673543.194 3119577.511 22482047.061 10 0 60956 69300.00000 0 12340910.440 5750600.996 21587253.221 10 0 60956 70200.00000 0 13155511.883 8197324.483 20273910.393 10 0 60956 71100.00000 0 14077222.184 10406021.279 18567392.899 10 0 60956 72000.00000 0 15057833.607 12332340.336 16500700.738 10 0 60956 72900.00000 0 16043121.419 13942904.778 14113831.275 10 0 60956 73800.00000 0 16975182.368 15216458.185 11453014.619 10 0 60956 74700.00000 0 17794948.703 16144511.250 8569826.411 10 0 60956 75600.00000 0 18444772.385 16731461.925 5520194.273 10 0 60956 76500.00000 0 18870970.563 16994184.052 2363316.499 10 0 60956 77400.00000 0 19026224.634 16961101.846 -839486.279 10 0 60956 78300.00000 0 18871730.721 16670789.161 -4025964.117 10 0 60956 79200.00000 0 18379009.588 16170152.782 -7134151.937 10 0 60956 80100.00000 0 17531298.228 15512276.838 -10103580.562 10 0 60956 81000.00000 0 16324462.746 14754019.839 -12876460.261 10 0 60956 81900.00000 0 14767392.474 13953466.570 -15398812.943 10 0 60956 82800.00000 0 12881857.092 13167343.267 -17621530.081 10 0 60956 83700.00000 0 10701831.398 12448506.138 -19501335.153 10 0 60956 84600.00000 0 8272314.855 11843610.074 -21001631.313 10 0 60956 85500.00000 0 5647694.439 11391056.678 -22093217.485 10 0 60957 0.00000 0 2889718.840 11119308.727 -22754858.781 10 0 60957 900.00000 0 65166.554 11045642.416 -22973700.466 10 0 60957 1800.00000 0 -2756691.471 11175390.456 -22745516.748 10 0 60957 2700.00000 0 -5506734.142 11501707.429 -22074790.945 10 0 60957 3600.00000 0 -8118624.074 12005867.507 -20974624.718 10 0 60957 4500.00000 0 -10531325.150 12658081.528 -19466478.754 10 0 60957 5400.00000 0 -12691399.178 13418798.587 -17579750.106 10 0 60957 6300.00000 0 -14554986.688 14240436.827 -15351194.566 10 0 60957 7200.00000 0 -16089390.091 15069469.897 -12824205.588 10 0 60957 8100.00000 0 -17274194.297 15848780.510 -10047964.029 10 0 60957 9000.00000 0 -18101879.294 16520181.262 -7076475.618 10 0 60957 9900.00000 0 -18577900.600 17026995.777 -3967515.329 10 0 60957 10800.00000 0 -18720235.952 17316590.785 -781499.676 10 0 60957 11700.00000 0 -18558419.014 17342751.898 2419690.620 10 0 60957 12600.00000 0 -18132102.460 17067802.591 5573914.195 10 0 60957 13500.00000 0 -17489212.416 16464376.872 8619975.077 10 0 60957 14400.00000 0 -16683773.269 15516770.907 11498807.592 10 0 60957 15300.00000 0 -15773495.335 14221816.682 14154617.153 10 0 60957 16200.00000 0 -14817227.507 12589240.910 16535955.123 10 0 60957 17100.00000 0 -13872382.160 10641493.951 18596707.547 10 0 60957 18000.00000 0 -12992440.378 8413055.531 20296979.371 10 0 60957 18900.00000 0 -12224641.738 5949245.658 21603858.052 10 0 60957 19800.00000 0 -11607954.894 3304589.387 22492042.828 10 0 60957 20700.00000 0 -11171413.266 540802.384 22944328.414 10 0 60957 21600.00000 0 -10932884.870 -2275520.440 22951934.618 10 0 60957 22500.00000 0 -10898327.232 -5075418.844 22514675.972 10 0 60957 23400.00000 0 -11061558.369 -7790181.069 21640968.287 10 0 60957 24300.00000 0 -11404553.425 -10353950.766 20347671.741 10 0 60957 25200.00000 0 -11898254.908 -12706220.422 18659772.964 10 0 60957 26100.00000 0 -12503863.134 -14794108.975 16609911.353 10 0 60957 27000.00000 0 -13174553.490 -16574329.954 14237757.677 10 0 60957 27900.00000 0 -13857549.138 -18014768.913 11589255.798 10 0 60957 28800.00000 0 -14496462.647 -19095604.672 8715741.088 10 0 60957 29700.00000 0 -15033808.311 -19809927.644 5672951.662 10 0 60957 30600.00000 0 -15413579.484 -20163829.449 2519950.925 10 0 60957 31500.00000 0 -15583781.741 -20175959.770 -682017.949 10 0 60957 32400.00000 0 -15498814.133 -19876568.911 -3870723.354 10 0 60957 33300.00000 0 -15121596.974 -19306076.528 -6984158.906 10 0 60957 34200.00000 0 -14425354.752 -18513226.840 -9961755.128 10 0 60957 35100.00000 0 -13394977.312 -17552908.557 -12745564.864 10 0 60957 36000.00000 0 -12027900.215 -16483731.981 -15281398.446 10 0 60957 36900.00000 0 -10334465.346 -15365466.137 -17519885.734 10 0 60957 37800.00000 0 -8337745.041 -14256444.758 -19417443.630 10 0 60957 38700.00000 0 -6072835.621 -13211051.207 -20937129.769 10 0 60957 39600.00000 0 -3585648.784 -12277388.991 -22049365.380 10 0 60957 40500.00000 0 -931250.434 -11495236.411 -22732513.180 10 0 60957 41400.00000 0 1828184.391 -10894371.743 -22973299.051 10 0 60957 42300.00000 0 4625715.661 -10493339.465 -22767069.446 10 0 60957 43200.00000 0 7392184.281 -10298709.236 -22117879.708 10 0 60957 44100.00000 0 10058854.058 -10304858.392 -21038411.779 10 0 60957 45000.00000 0 12560039.961 -10494286.539 -19549723.144 10 0 60957 45900.00000 0 14835613.565 -10838448.250 -17680832.056 10 0 60957 46800.00000 0 16833281.759 -11299067.984 -15468147.326 10 0 60957 47700.00000 0 18510544.284 -11829880.909 -12954754.003 10 0 60957 48600.00000 0 19836249.240 -12378725.341 -10189569.128 10 0 60957 49500.00000 0 20791682.606 -12889897.621 -7226384.319 10 0 60957 50400.00000 0 21371147.437 -13306669.208 -4122814.274 10 0 60957 51300.00000 0 21582009.919 -13573858.979 -939172.156 10 0 60957 52200.00000 0 21444211.941 -13640351.495 2262705.808 10 0 60957 53100.00000 0 20989272.222 -13461454.444 5420663.115 10 0 60957 54000.00000 0 20258819.497 -13000995.428 8473429.427 10 0 60957 54900.00000 0 19302720.758 -12233069.469 11361807.066 10 0 60957 55800.00000 0 18176884.282 -11143363.446 14029814.518 10 0 60957 56700.00000 0 16940830.490 -9730001.624 16425765.077 10 0 60957 57600.00000 0 15655132.948 -8003876.498 18503260.336 10 0 60957 58500.00000 0 14378836.838 -5988450.733 20222080.016 10 0 60957 59400.00000 0 13166962.679 -3719037.838 21548951.932 10 0 60957 60300.00000 0 12068199.163 -1241590.731 22458188.207 10 0 60957 61200.00000 0 11122880.777 1388952.483 22932176.409 10 0 60957 62100.00000 0 10361333.866 4110698.090 22961716.911 10 0 60957 63000.00000 0 9802659.448 6857119.000 22546200.485 10 0 60957 63900.00000 0 9454002.948 9559574.870 21693622.874 10 0 60957 64800.00000 0 9310341.024 12149927.253 20420435.835 10 0 60957 65700.00000 0 9354794.202 14563142.781 18751236.985 10 0 60957 66600.00000 0 9559452.419 16739777.607 16718303.528 10 0 60957 67500.00000 0 9886679.161 18628240.870 14360977.819 10 0 60957 68400.00000 0 10290839.927 20186743.679 11724915.453 10 0 60957 69300.00000 0 10720382.787 21384852.657 8861209.327 10 0 60957 70200.00000 0 11120183.758 22204583.255 5825405.691 10 0 60957 71100.00000 0 11434058.233 22640986.943 2676430.583 10 0 60957 72000.00000 0 11607332.190 22702207.275 -524552.845 10 0 60957 72900.00000 0 11589364.015 22409002.244 -3715333.900 10 0 60957 73800.00000 0 11335909.313 21793752.618 -6833867.409 10 0 60957 74700.00000 0 10811227.443 20898997.954 -9819486.014 10 0 60957 75600.00000 0 9989839.299 19775562.106 -12614087.369 10 0 60957 76500.00000 0 8857860.293 18480347.368 -15163272.297 10 0 60957 77400.00000 0 7413850.577 17073890.695 -17417410.920 10 0 60957 78300.00000 0 5669144.935 15617785.477 -19332615.286 10 0 60957 79200.00000 0 3647646.798 14172077.968 -20871599.082 10 0 60957 80100.00000 0 1385093.629 12792748.504 -22004407.304 10 0 60957 81000.00000 0 -1072176.754 11529383.835 -22709001.569 10 0 60957 81900.00000 0 -3668908.284 10423138.580 -22971689.693 10 0 60957 82800.00000 0 -6342987.623 9505071.438 -22787391.295 10 0 60957 83700.00000 0 -9027798.538 8794925.732 -22159734.458 10 0 60957 84600.00000 0 -11654771.913 8300404.932 -21100981.799 10 0 60957 85500.00000 0 -14156025.389 8016972.830 -19631787.586 99